Eglin Air Force Base, FL

6:08 AM CST on February 10, 2016 (GMT -0600)
Eglin Air Force Base

Weather History for KVPS - October, 2012

Change the Weather History Date:

Monday, October 15, 2012

  Actual Average Record
Temperature  
Mean Temperature 76 °F -  
Max Temperature 88 °F 80 °F 89 °F (1949)
Min Temperature 64 °F 54 °F 37 °F (1987)
Cooling Degree Days 10    
Growing Degree Days 26 (Base 50)    
Moisture  
Dew Point 64 °F    
Average Humidity 71    
Maximum Humidity 94    
Minimum Humidity 38    
Precipitation  
Precipitation 0.00 in - - ()
Sea Level Pressure  
Sea Level Pressure 29.95 in    
Wind  
Wind Speed 4 mph (NNW)    
Max Wind Speed 10 mph    
Max Gust Speed -    
Visibility 9 miles    
Events Fog    
Averages and records for this station are not official NWS values.
T = Trace of Precipitation, MM = Missing Value Source: NWS Daily Summary

Daily Weather History Graph

Daily Weather History Graph

Search for Another Location

Airport or City:

Trip Planner

Search our weather history database for the weather conditions in past years. The results will help you decide how hot, cold, wet, or windy it might be!

Date:

Astronomy

Oct. 15, 2012 Rise Set
Actual Time 6:48 AM CDT 6:14 PM CDT
Civil Twilight 6:24 AM CDT 6:38 PM CDT
Nautical Twilight 5:56 AM CDT 7:06 PM CDT
Astronomical Twilight 5:28 AM CDT 7:34 PM CDT
Moon 6:54 AM CDT (10/15) 6:19 PM CDT (10/15)
Length of Visible Light 12h 14m
Length of Day
11h 25m
New Moon, 0% of the Moon is Illuminated
Oct 15
New Moon
Oct 21
First Quarter
Oct 29
Full
Nov 6
Last Quarter
Nov 13
New

Hourly Weather History & Observations

Time (CDT) Temp. Heat Index Dew Point Humidity Pressure Visibility Wind Dir Wind Speed Gust Speed Precip Events Conditions
12:56 AM 68.4 °F - 66.0 °F 92% 30.01 in 6.0 mi NNW 1.2 mph - N/A   Partly Cloudy
1:56 AM 68.7 °F - 65.5 °F 89% 29.99 in 6.0 mi NNW 1.2 mph - N/A   Clear
2:56 AM 68.0 °F - 64.4 °F 88% 29.98 in 6.0 mi NNW 2.3 mph - N/A   Clear
3:56 AM 66.6 °F - 64.4 °F 93% 29.97 in 6.0 mi NW 2.3 mph - N/A   Partly Cloudy
4:47 AM 68.0 °F - 66.2 °F 94% 29.96 in 7.0 mi NW 2.3 mph - N/A   Partly Cloudy
4:56 AM 67.8 °F - 66.0 °F 94% 29.97 in 7.0 mi NW 1.2 mph - N/A   Partly Cloudy
5:56 AM 67.5 °F - 65.1 °F 92% 29.98 in 6.0 mi North 2.3 mph - N/A   Partly Cloudy
6:56 AM 67.8 °F - 65.7 °F 93% 29.99 in 7.0 mi NW 3.5 mph - N/A Fog Shallow Fog
7:55 AM 74.3 °F - 71.2 °F 90% 29.98 in 8.0 mi Calm Calm - N/A   Mostly Cloudy
8:37 AM 77.0 °F - 71.6 °F 83% 29.99 in 10.0 mi Variable 4.6 mph - N/A   Overcast
8:57 AM 76.8 °F - 71.4 °F 83% 30.00 in 10.0 mi Variable 3.5 mph - N/A   Overcast
9:57 AM 79.5 °F - 71.1 °F 75% 29.99 in 10.0 mi West 4.6 mph - N/A   Mostly Cloudy
10:58 AM 82.6 °F 86.1 °F 69.3 °F 64% 29.97 in 10.0 mi Variable 6.9 mph - N/A   Mostly Cloudy
11:55 AM 84.2 °F 87.6 °F 68.5 °F 59% 29.96 in 10.0 mi NNW 8.1 mph - N/A   Scattered Clouds
12:56 PM 85.8 °F 87.6 °F 65.1 °F 50% 29.94 in 10.0 mi WNW 4.6 mph - N/A   Scattered Clouds
1:58 PM 85.6 °F 87.6 °F 65.8 °F 51% 29.90 in 10.0 mi NNW 10.4 mph - N/A   Scattered Clouds
2:58 PM 84.7 °F 85.6 °F 63.0 °F 48% 29.88 in 10.0 mi NW 8.1 mph - N/A   Mostly Cloudy
3:58 PM 86.7 °F 86.1 °F 59.2 °F 39% 29.87 in 10.0 mi NNW 9.2 mph - N/A   Scattered Clouds
4:55 PM 84.6 °F 83.5 °F 56.1 °F 38% 29.87 in 10.0 mi NNW 9.2 mph - N/A   Partly Cloudy
5:55 PM 80.6 °F 81.1 °F 59.2 °F 48% 29.89 in 10.0 mi North 5.8 mph - N/A   Partly Cloudy
6:55 PM 74.5 °F - 58.6 °F 58% 29.91 in 10.0 mi NNW 3.5 mph - N/A   Partly Cloudy
7:55 PM 71.8 °F - 58.1 °F 62% 29.91 in 10.0 mi North 4.6 mph - N/A   Clear
8:55 PM 69.1 °F - 57.0 °F 65% 29.93 in 10.0 mi North 6.9 mph - N/A   Clear
9:55 PM 67.5 °F - 56.8 °F 69% 29.94 in 10.0 mi NNW 6.9 mph - N/A   Clear
10:55 PM 65.8 °F - 55.9 °F 70% 29.95 in 10.0 mi NNW 5.8 mph - N/A   Clear
11:55 PM 64.6 °F - 54.0 °F 68% 29.96 in 10.0 mi NNW 5.8 mph - N/A   Clear